[[{"header":{"parameterUnit":"m.s-1","parameterCategory":1,"la1":30.2991,"la2":30.254,"lo1":-89.0895,"lo2":-89.0444,"dy":0.0017,"dx":0.0017,"nx":28,"ny":28,"refTime":"2024-03-22T03:00:00:Z","depth":0,"parameterNumber":2,"parameterNumberName":"U-component_of_WINDS"},"data":[0,0,0,0,0,0,0,0,0,0,0,0,0,0,0,0,0,0,0,0,0,0,0,0,0,0,0,0,0,0,0,0,0,0,0,0,0,0,0,0,0,0,0,0,0,0,0,0,0,0,0,0,0,0,0,0,0,0,-3.8553,-3.8553,0,-3.8576,-3.8577,-3.8577,-3.8412,-3.8407,-3.8403,-3.8398,-3.8436,-3.8441,-3.8446,0,0,0,0,0,0,0,0,0,0,0,0,0,-3.8378,-3.8382,-3.8553,-3.8553,-3.8553,-3.8576,-3.8577,-3.8577,-3.8413,-3.8407,-3.8401,-3.8396,-3.8434,-3.844,-3.8447,0,0,0,0,0,0,0,0,0,0,0,0,0,-3.8434,-3.8384,-3.8552,-3.8474,-3.8467,-3.8576,-3.8577,-3.8577,-3.8414,-3.8407,-3.84,-3.8393,-3.8432,-3.844,-3.8448,-3.8638,0,0,-3.8472,-3.8476,0,0,0,0,0,0,0,0,-3.8431,-3.844,-3.8485,-3.8479,-3.8472,-3.8484,-3.8529,-3.8598,-3.8416,-3.8434,-3.8398,-3.839,-3.8458,-3.8464,-3.8484,-3.864,-3.8641,-3.8473,-3.8478,-3.8481,-3.8483,0,0,0,0,0,0,0,-3.8427,-3.8438,-3.8562,-3.8486,-3.8478,-3.8442,-3.8442,-3.8541,-3.8486,-3.8432,-3.842,-3.8425,-3.8453,-3.8477,-3.8484,-3.8642,-3.8473,-3.848,-3.8485,-3.8488,-3.8958,-3.8966,0,0,0,0,0,0,-3.8432,-3.8436,-3.8561,-3.8563,-3.8433,-3.845,-3.845,-3.8487,-3.8484,-3.8477,-3.8431,-3.8417,-3.8466,-3.8474,-3.8484,-3.8708,-3.8481,-3.8489,-3.8493,-3.8951,-3.896,-3.8968,0,0,0,0,0,0,-3.8429,-3.8445,-3.856,-3.8496,-3.8508,-3.8461,-3.8503,-3.8491,-3.8514,-3.8483,-3.8473,-3.8464,-3.8461,-3.8473,-3.8601,-3.8707,-3.8492,-3.85,-3.8942,-3.8954,-3.8964,-3.9157,0,0,0,0,0,0,-3.8425,-3.8444,-3.8513,-3.8499,-3.8512,-3.8673,-3.851,-3.8497,-3.8527,-3.8509,-3.8511,-3.8505,-3.8456,-3.8589,-3.8609,-3.8714,-3.8506,-3.8932,-3.8947,-3.8961,-3.9141,-3.9174,-3.9202,0,0,0,0,0,-3.8419,-3.8568,-3.8517,-3.8533,-3.8596,-3.8679,-3.8687,-3.8624,-3.8536,-3.8607,-3.8587,-3.8505,-3.8692,-3.8604,-3.8624,-3.8734,-3.8925,-3.8943,-3.8959,-3.9127,-3.9167,-3.9201,0,0,0,0,0,0,-3.86,-3.8565,-3.8508,-3.8656,-3.8672,-3.8651,-3.8737,-3.8668,-3.8712,-3.8694,-3.8619,-3.8621,-3.8762,-3.8761,-3.8663,-3.892,-3.8794,-3.8816,-3.8915,-3.8952,-3.8982,-3.898,-3.8513,0,0,0,0,0,-3.8656,-3.8723,-3.869,-3.8825,-3.8835,-3.8786,-3.882,-3.877,-3.8784,-3.8791,-3.878,-3.8802,-3.8865,-3.8909,-3.8965,-3.914,-3.914,-3.9226,-3.9257,-3.9282,-3.9302,-3.9397,-3.9436,-3.9025,-3.9025,-3.9025,0,0,-3.8775,-3.8764,-3.8811,-3.8861,-3.8867,-3.8941,-3.8792,-3.8877,-3.8933,-3.8805,-3.8923,-3.8918,-3.8937,-3.9089,-3.9156,-3.9093,-3.9416,-3.9304,-3.9324,-3.9331,-3.9419,-3.9458,-3.9493,-3.9037,-3.9035,-3.9033,0,0,-3.9029,-3.9027,-3.9139,-3.9148,-3.9157,-3.9124,-3.9151,-3.9142,-3.9131,-3.9249,-3.9155,-3.9223,-3.9334,-3.9351,-3.9375,-3.9639,-3.9567,-3.9661,-3.982,-3.9913,-3.9946,-3.9974,-4.007,-4.0106,-3.9681,-3.9681,-3.9682,0,-3.9177,-3.928,-3.9207,-3.9297,-3.9324,-3.9209,-3.9325,-3.9338,-3.9368,-3.9391,-3.9319,-3.9456,-3.9461,-3.9617,-3.9681,-3.9704,-3.9736,-3.966,-3.9946,-3.9974,-4.0,-4.0091,-4.0127,-3.9693,-3.9692,-3.969,-3.9689,0,-3.9462,-3.9537,-3.9627,-3.9655,-3.9691,-3.9795,-3.9741,-3.9788,-3.9737,-3.9713,-3.9837,-3.9838,-3.9894,-3.9927,-3.9879,-4.0079,-4.0039,-3.9958,-3.983,-4.0051,-4.0136,-4.017,-3.9709,-3.9705,-3.9702,-3.9699,0,0,-3.983,-3.9816,-3.985,-3.9862,-3.9866,-3.9924,-4.0025,-4.0075,-4.0119,-4.0145,-4.0229,-4.0327,-4.0252,-4.0279,-4.0232,-4.0315,-4.0527,-4.0223,-4.0223,-4.0281,-4.075,-4.0811,-4.0852,-4.0478,-4.0485,-4.049,-4.0749,0,-4.0078,-4.0243,-4.0182,-4.0354,-4.0424,-4.0317,-4.0405,-4.042,-4.0401,-4.0461,-4.0442,-4.0512,-4.0407,-4.0423,-4.05,-4.0484,-4.062,-4.0465,-4.0561,-4.0565,-4.0559,-4.0896,-4.096,-4.1204,-4.0781,-4.0786,-4.079,0,-4.039,-4.0424,-4.0603,-4.0596,-4.0623,-4.0702,-4.0745,-4.0803,-4.0819,-4.08,-4.0832,-4.0768,-4.0871,-4.0744,-4.0887,-4.0783,-4.0819,-4.0819,-4.0827,-4.0833,-4.0691,-4.0913,-4.128,-4.1317,-4.0841,-4.0837,-4.0834,0,-4.0641,-4.0733,-4.0852,-4.0866,-4.086,-4.0919,-4.0921,-4.0929,-4.0965,-4.1005,-4.1028,-4.1081,-4.1111,-4.1156,-4.111,-4.1021,-4.1262,-4.113,-4.1253,-4.1254,-4.1308,-4.1305,-4.1687,-4.1331,-4.1331,-4.133,-4.1329,0,-4.0926,-4.104,-4.0965,-4.1038,-4.1164,-4.1094,-4.1222,-4.1213,-4.1222,-4.1295,-4.1208,-4.128,-4.1214,-4.1282,-4.1248,-4.1374,-4.1388,-4.1378,-4.1368,-4.1386,-4.1388,-4.1409,-4.1391,-4.1339,-4.1337,-4.1335,-4.1334,0,-4.1227,-4.1181,-4.1304,-4.1289,-4.1288,-4.1382,-4.1371,-4.1441,-4.1416,-4.151,-4.1528,-4.1492,-4.1567,-4.1525,-4.1604,-4.1581,-4.1744,-4.1711,-4.1737,-4.1729,-4.1854,-4.1843,-4.2263,-4.2315,-4.1926,-4.1929,-4.1933,0,-4.1412,-4.1496,-4.149,-4.153,-4.1536,-4.1603,-4.1638,-4.1575,-4.1616,-4.1643,-4.1711,-4.1777,-4.1826,-4.1953,-4.1936,-4.1997,-4.1965,-4.2108,-4.1973,-4.199,-4.1968,-4.1964,-4.1973,-4.2135,-4.2139,-4.2143,-4.2146,0,-4.1744,-4.1718,-4.1769,-4.1815,-4.1858,-4.1891,-4.1918,-4.1958,-4.1895,-4.1947,-4.202,-4.2059,-4.2137,-4.2206,-4.2259,-4.2265,-4.2198,-4.2189,-4.222,-4.224,-4.2252,-4.2248,-4.1812,-4.2179,-4.2176,-4.2174,-4.2172,-4.217,-4.1993,-4.2064,-4.2071,-4.2132,-4.2145,-4.2173,-4.2238,-4.2221,-4.2279,-4.2335,-4.2296,-4.2384,-4.2402,-4.2465,-4.2481,-4.2552,-4.2495,-4.2541,-4.2553,-4.2565,-4.2582,-4.2241,-4.2562,-4.2561,-4.256,-4.2559,-4.2558,0,-4.2322,-4.2321,-4.2378,-4.2417,-4.2467,-4.2395,-4.2421,-4.2469,-4.2546,-4.2566,-4.2617,-4.2703,-4.277,-4.2759,-4.2821,-4.2881,-4.2852,-4.2899,-4.2895,-4.2898,-4.2629,-4.2595,-4.2922,-4.2922,-4.2922,-4.2922,-4.2922,-4.2922,-4.2499,-4.2615,-4.2591,-4.2715,-4.2714,-4.2795,-4.2818,-4.2844,-4.286,-4.2959,-4.3013,-4.3004,-4.3014,-4.3076,-4.3136,-4.3131,-4.3159,-4.3219,-4.3204,-4.2953,-4.2917,-4.2882,-4.285,-4.3225,-4.3226,-4.3466,-4.3468,-4.347]},{"header":{"parameterUnit":"m.s-1","parameterCategory":1,"la1":30.2991,"la2":30.254,"lo1":-89.0895,"lo2":-89.0444,"dy":0.0017,"dx":0.0017,"nx":28,"ny":28,"refTime":"2024-03-22T03:00:00:Z","depth":0,"parameterNumber":3,"parameterNumberName":"V-component_of_WINDS"},"data":[0,0,0,0,0,0,0,0,0,0,0,0,0,0,0,0,0,0,0,0,0,0,0,0,0,0,0,0,0,0,0,0,0,0,0,0,0,0,0,0,0,0,0,0,0,0,0,0,0,0,0,0,0,0,0,0,0,0,-1.4367,-1.4366,0,-1.4233,-1.4231,-1.423,-1.4167,-1.4167,-1.4167,-1.4168,-1.4022,-1.4018,-1.4014,0,0,0,0,0,0,0,0,0,0,0,0,0,-1.4561,-1.4558,-1.4367,-1.4366,-1.4364,-1.4233,-1.4231,-1.4229,-1.4167,-1.4167,-1.4167,-1.4168,-1.4023,-1.4018,-1.4014,0,0,0,0,0,0,0,0,0,0,0,0,0,-1.4457,-1.4557,-1.4368,-1.4317,-1.4312,-1.4233,-1.4231,-1.4229,-1.4167,-1.4167,-1.4167,-1.4168,-1.4025,-1.4019,-1.4013,-1.3972,0,0,-1.3995,-1.3992,0,0,0,0,0,0,0,0,-1.4463,-1.445,-1.4326,-1.4321,-1.4314,-1.4217,-1.4246,-1.4142,-1.4167,-1.4222,-1.4168,-1.4168,-1.4086,-1.4075,-1.4049,-1.3965,-1.3959,-1.3994,-1.399,-1.3988,-1.3986,0,0,0,0,0,0,0,-1.447,-1.4455,-1.4314,-1.4325,-1.4317,-1.4298,-1.4284,-1.4226,-1.4154,-1.4217,-1.4212,-1.4197,-1.4083,-1.4055,-1.4045,-1.3957,-1.3994,-1.3989,-1.3985,-1.3983,-1.3829,-1.3829,0,0,0,0,0,0,-1.4487,-1.4462,-1.4318,-1.431,-1.4391,-1.4295,-1.4279,-1.4248,-1.4155,-1.4141,-1.4197,-1.4195,-1.4065,-1.4052,-1.404,-1.3984,-1.3988,-1.3982,-1.3979,-1.383,-1.3829,-1.3829,0,0,0,0,0,0,-1.4491,-1.4475,-1.4323,-1.4384,-1.4364,-1.4291,-1.4257,-1.4245,-1.4218,-1.414,-1.4126,-1.4183,-1.4065,-1.4048,-1.3989,-1.3979,-1.398,-1.3974,-1.383,-1.383,-1.3829,-1.3875,0,0,0,0,0,0,-1.4497,-1.4477,-1.4463,-1.4385,-1.4361,-1.4278,-1.4257,-1.4242,-1.4208,-1.4204,-1.4123,-1.411,-1.4064,-1.3999,-1.3983,-1.397,-1.3969,-1.3831,-1.383,-1.3829,-1.3874,-1.3876,-1.3877,0,0,0,0,0,-1.4504,-1.448,-1.4462,-1.4445,-1.4342,-1.4278,-1.4264,-1.4214,-1.4208,-1.4192,-1.4141,-1.4112,-1.3982,-1.3993,-1.3975,-1.396,-1.3831,-1.383,-1.3829,-1.3873,-1.3875,-1.3877,0,0,0,0,0,0,-1.4556,-1.4469,-1.4448,-1.4398,-1.4346,-1.4268,-1.4246,-1.4218,-1.4165,-1.4163,-1.41,-1.4082,-1.4028,-1.3988,-1.4002,-1.3914,-1.3904,-1.3899,-1.3943,-1.3945,-1.3946,-1.3957,-1.3964,0,0,0,0,0,-1.4562,-1.452,-1.4444,-1.4407,-1.4382,-1.4319,-1.4289,-1.4255,-1.4197,-1.4174,-1.412,-1.4062,-1.4008,-1.3974,-1.392,-1.3867,-1.3847,-1.3848,-1.385,-1.3851,-1.3848,-1.3814,-1.3813,-1.3825,-1.3825,-1.3825,0,0,-1.4573,-1.452,-1.4497,-1.4416,-1.4372,-1.4327,-1.4301,-1.4254,-1.4219,-1.4166,-1.4108,-1.4065,-1.3997,-1.3941,-1.3913,-1.3905,-1.384,-1.385,-1.3852,-1.3847,-1.3813,-1.3812,-1.3811,-1.3825,-1.3825,-1.3825,0,0,-1.4571,-1.4528,-1.4491,-1.4448,-1.4381,-1.4339,-1.433,-1.4255,-1.4226,-1.4166,-1.4125,-1.4081,-1.399,-1.3942,-1.3906,-1.3884,-1.3854,-1.3867,-1.3876,-1.3844,-1.3843,-1.3842,-1.3833,-1.383,-1.3864,-1.3864,-1.3864,0,-1.4593,-1.4526,-1.4475,-1.4431,-1.4396,-1.4348,-1.4309,-1.4268,-1.4186,-1.4161,-1.4155,-1.4038,-1.3989,-1.392,-1.3914,-1.3887,-1.3873,-1.3877,-1.3848,-1.3846,-1.3845,-1.3835,-1.3831,-1.3866,-1.3866,-1.3866,-1.3866,0,-1.4555,-1.4509,-1.4487,-1.4412,-1.4374,-1.4333,-1.4273,-1.4239,-1.4208,-1.4165,-1.4104,-1.4043,-1.3975,-1.3956,-1.3924,-1.3881,-1.3878,-1.3861,-1.3849,-1.3846,-1.3836,-1.3832,-1.3869,-1.3869,-1.3868,-1.3867,0,0,-1.4583,-1.448,-1.4473,-1.4437,-1.436,-1.4322,-1.4276,-1.4212,-1.4184,-1.4129,-1.4087,-1.4011,-1.3993,-1.3953,-1.3914,-1.3887,-1.3871,-1.3872,-1.3869,-1.3873,-1.3817,-1.3831,-1.3828,-1.385,-1.3849,-1.3849,-1.3823,0,-1.4569,-1.449,-1.4442,-1.438,-1.4335,-1.4288,-1.4248,-1.4194,-1.4152,-1.4106,-1.4058,-1.4004,-1.3986,-1.3961,-1.3932,-1.3879,-1.3858,-1.388,-1.3809,-1.3807,-1.3828,-1.3822,-1.3837,-1.3816,-1.3818,-1.3818,-1.3817,0,-1.4543,-1.4491,-1.4426,-1.4352,-1.4331,-1.4297,-1.4233,-1.419,-1.4127,-1.4098,-1.4052,-1.4014,-1.396,-1.3953,-1.3877,-1.3893,-1.386,-1.383,-1.3827,-1.3819,-1.3812,-1.3813,-1.3808,-1.3804,-1.381,-1.3811,-1.3811,0,-1.4569,-1.4482,-1.4432,-1.4403,-1.4315,-1.4292,-1.4254,-1.4191,-1.4155,-1.4098,-1.4073,-1.401,-1.3975,-1.3925,-1.387,-1.387,-1.3799,-1.3787,-1.3771,-1.3772,-1.3758,-1.376,-1.3748,-1.3738,-1.3738,-1.3738,-1.3738,0,-1.4559,-1.452,-1.4442,-1.4411,-1.4365,-1.4309,-1.4264,-1.4221,-1.4166,-1.4123,-1.4077,-1.4037,-1.3966,-1.3916,-1.3872,-1.3815,-1.3799,-1.3772,-1.3761,-1.3777,-1.378,-1.3754,-1.3754,-1.3737,-1.3738,-1.3738,-1.3738,0,-1.458,-1.4526,-1.4468,-1.439,-1.4369,-1.4339,-1.4271,-1.4237,-1.4192,-1.4138,-1.4122,-1.4051,-1.399,-1.393,-1.3847,-1.3817,-1.376,-1.3745,-1.3782,-1.3776,-1.3763,-1.3765,-1.3733,-1.3726,-1.3723,-1.3723,-1.3723,0,-1.4577,-1.4547,-1.4466,-1.4435,-1.4399,-1.435,-1.4313,-1.4255,-1.4218,-1.4143,-1.4117,-1.4053,-1.3999,-1.3903,-1.3842,-1.3778,-1.376,-1.3753,-1.375,-1.3766,-1.3759,-1.3761,-1.3757,-1.3755,-1.3756,-1.3756,-1.3756,0,-1.4577,-1.4552,-1.4502,-1.4443,-1.4401,-1.435,-1.4298,-1.4274,-1.4205,-1.4165,-1.4104,-1.4062,-1.3978,-1.3914,-1.3843,-1.3799,-1.3765,-1.3758,-1.375,-1.3766,-1.3788,-1.3775,-1.3787,-1.3759,-1.3758,-1.3758,-1.3758,-1.3758,-1.4585,-1.4556,-1.4494,-1.444,-1.4394,-1.4346,-1.431,-1.4261,-1.421,-1.4139,-1.4107,-1.4044,-1.3978,-1.3879,-1.3836,-1.3784,-1.3775,-1.3765,-1.3762,-1.376,-1.3764,-1.3797,-1.3771,-1.377,-1.377,-1.377,-1.377,0,-1.4582,-1.454,-1.4491,-1.442,-1.4376,-1.435,-1.429,-1.4254,-1.4201,-1.4144,-1.4092,-1.4019,-1.3957,-1.389,-1.3823,-1.3794,-1.3776,-1.3778,-1.3779,-1.3769,-1.3776,-1.3789,-1.3793,-1.3793,-1.3793,-1.3793,-1.3793,-1.3793,-1.4576,-1.4524,-1.4491,-1.4414,-1.4371,-1.4312,-1.4279,-1.4233,-1.4187,-1.411,-1.4058,-1.4016,-1.3954,-1.3882,-1.3822,-1.3803,-1.378,-1.3786,-1.3763,-1.3771,-1.3769,-1.3768,-1.3779,-1.3782,-1.3782,-1.3761,-1.3761,-1.3761]}]]